Theta_e
339 348 352 356 354 353 352 352 352 354 353 352 352 352 351 350 349 347 345 344 343 342 340 340 341 341 343 344 348 348 347 347 348 348 349 349 349 348 348 348 349 348 350
342 348 350 354 355 354 353 353 353 354 353 353 352 350 350 349 348 346 344 342 342 341 339 337 337 339 340 342 345 345 344 344 344 345 346 346 347 347 346 346 348 349 350
341 348 352 351 354 354 353 353 353 354 353 352 352 351 350 349 348 346 344 342 340 340 338 336 333 333 336 338 341 342 341 340 342 342 343 342 344 345 345 343 344 345 346
341 348 350 348 353 353 353 353 353 353 353 352 351 351 350 349 347 345 343 341 339 337 336 334 331 329 331 334 337 339 341 340 339 341 340 340 339 343 343 341 341 340 343
340 348 351 348 353 353 353 352 352 352 352 350 350 348 347 346 346 344 342 340 338 336 334 333 329 327 327 332 334 338 341 339 337 340 340 341 340 340 340 340 338 338 339
341 347 347 348 351 352 352 352 352 352 350 349 349 347 346 344 342 341 340 338 336 334 333 330 327 326 327 330 332 338 339 338 338 340 340 339 339 339 339 338 338 338 338
341 346 349 347 349 350 351 351 351 350 349 348 347 346 344 342 338 337 339 336 335 332 331 328 325 324 325 328 331 334 334 334 340 340 339 339 339 338 337 336 335 335 336
340 344 347 342 344 345 346 347 347 348 347 347 347 347 344 340 338 337 336 335 334 331 330 327 324 322 322 324 327 329 328 328 337 338 338 338 338 337 336 334 333 332 333
341 343 345 347 346 336 343 342 344 346 346 346 345 344 342 339 338 335 335 332 330 330 329 326 323 320 319 321 320 320 322 323 333 334 333 335 334 337 335 333 331 331 333
337 340 342 343 343 348 349 337 338 341 342 342 342 338 334 334 333 331 330 332 331 329 328 326 323 319 312 313 313 311 313 320 326 327 329 327 330 334 333 331 329 329 330
314 315 321 336 339 342 347 342 335 335 336 337 336 330 330 340 335 331 328 331 329 327 327 326 322 314 306 305 307 307 311 311 315 318 320 317 325 329 327 327 328 328 328
309 310 311 315 329 339 341 345 346 345 346 344 344 343 342 338 332 329 325 327 327 327 327 325 320 313 313 308 307 309 306 306 307 309 311 311 318 324 326 325 325 326 326
307 310 311 312 315 328 338 342 344 345 345 345 343 343 342 336 328 329 328 326 325 321 324 323 323 320 316 312 308 306 306 306 306 306 306 307 312 316 322 325 323 324 324
307 309 312 313 314 321 337 339 340 341 341 343 342 339 339 337 329 328 327 325 324 324 320 318 319 320 317 314 311 309 307 306 306 306 306 303 308 312 314 320 325 323 324
306 309 311 315 318 319 335 337 337 336 335 334 332 333 333 336 330 327 326 324 322 321 319 317 316 319 319 316 314 311 309 307 305 305 306 303 304 308 312 314 318 326 326
305 304 308 316 317 324 333 327 323 321 320 319 318 322 327 328 330 330 324 322 320 318 316 315 314 317 317 315 315 312 310 309 307 306 305 306 301 303 306 311 314 317 324
301 303 306 317 322 316 312 311 311 310 310 309 310 311 316 320 322 320 318 315 313 312 313 314 313 313 315 311 314 314 312 311 310 309 308 306 306 304 302 306 310 313 317
299 302 307 309 307 306 306 305 304 304 304 303 304 305 308 312 313 313 312 312 315 311 311 310 310 310 312 308 309 312 313 312 311 310 308 307 306 304 306 303 305 309 312
298 301 303 305 304 303 302 300 298 298 297 297 299 300 300 303 308 306 305 306 307 305 306 310 309 308 307 306 306 308 311 311 311 308 307 305 305 304 304 303 301 302 305
297 299 301 303 302 301 300 297 295 293 292 292 293 294 296 299 299 299 303 301 302 301 301 302 305 307 305 305 304 307 309 309 307 306 305 301 302 302 302 302 304 304 303
296 296 296 297 299 301 299 296 293 292 294 293 294 294 294 293 294 296 295 298 298 297 299 302 305 304 304 303 304 304 306 304 303 304 303 303 301 303 303 303 303 303 303
295 296 296 296 297 300 300 298 295 293 292 292 292 292 292 293 293 293 293 293 294 294 293 296 298 301 301 301 298 301 299 303 302 303 304 300 303 304 302 302 303 303 304
294 295 295 295 296 295 294 293 292 292 292 291 290 290 291 292 292 292 292 292 292 292 290 291 292 293 291 296 298 297 295 294 296 303 301 301 301 300 301 302 302 302 303
290 291 292 292 292 292 294 294 293 290 288 289 290 290 290 291 290 290 290 291 290 290 290 290 291 290 291 288 292 292 295 294 291 290 297 296 299 294 296 298 300 299 301
290 290 291 290 290 291 292 292 290 289 289 290 290 289 290 289 290 289 289 289 289 289 289 289 289 289 289 288 288 288 289 290 294 287 285 288 290 292 293 294 295 298 299
289 289 290 289 289 290 290 291 290 289 289 289 289 288 288 288 288 288 288 288 288 287 287 287 288 287 287 287 287 287 287 285 285 285 284 285 286 288 290 291 294 294 297
Wind_Speed
7 12 8 14 15 14 13 12 12 12 12 13 14 14 15 15 15 15 14 13 13 13 13 13 13 13 12 10 11 14 14 13 14 14 14 14 15 15 15 14 9 12 12
10 13 9 12 13 14 13 12 10 10 10 10 10 11 11 13 14 16 14 13 12 12 13 13 13 12 12 10 10 11 11 11 11 10 6 12 12 14 14 15 15 14 14
11 12 12 11 10 12 13 12 11 10 12 12 11 11 10 11 12 14 16 13 12 12 12 12 13 12 11 11 9 9 8 9 9 7 5 7 10 12 13 13 13 13 15
11 13 13 11 11 10 13 11 10 10 11 12 12 11 11 11 12 14 15 13 11 11 12 12 12 12 11 10 9 8 8 7 6 3 4 6 8 11 11 12 13 13 11
10 12 11 12 12 11 11 11 9 9 10 11 11 9 12 13 14 14 13 11 11 11 11 12 13 13 11 10 9 8 8 6 3 1 6 6 6 10 11 11 11 12 13
6 10 9 7 12 13 13 13 11 8 9 9 10 13 14 14 11 9 10 10 12 11 11 11 12 12 12 10 10 9 9 7 4 5 5 5 8 9 10 11 11 11 11
6 7 9 4 6 9 10 11 11 10 8 10 10 12 13 13 10 7 7 6 11 9 10 10 12 12 12 11 10 9 9 7 5 5 5 5 8 7 8 9 9 10 10
5 5 7 7 5 5 9 10 9 8 8 8 9 10 13 13 11 11 10 11 10 9 10 11 12 12 12 11 11 11 10 8 4 6 5 5 10 5 7 8 8 8 8
4 4 5 7 7 5 6 8 10 10 9 7 6 8 13 12 11 11 11 10 9 9 10 11 11 12 12 12 12 11 10 9 5 4 4 4 11 6 6 7 8 8 8
7 4 1 2 5 7 8 7 6 9 9 8 7 10 11 11 11 11 11 10 10 8 8 9 10 10 10 11 12 11 8 4 6 5 4 6 11 8 7 7 7 6 7
6 7 6 4 4 6 8 4 5 6 7 8 8 10 10 7 8 6 10 11 10 8 8 9 10 9 6 7 9 9 5 4 5 4 3 11 10 8 7 7 6 5 6
9 9 7 7 6 5 4 7 7 5 5 5 6 11 6 4 4 4 8 9 10 8 8 9 8 6 3 4 4 3 4 4 3 3 3 9 9 8 8 6 5 4 4
10 7 9 7 6 6 4 3 2 3 3 3 5 7 7 7 4 3 4 3 3 5 3 2 3 5 6 5 4 4 5 4 3 3 4 8 9 9 8 6 4 3 2
11 10 10 8 6 6 3 2 1 1 1 2 2 3 4 4 4 4 3 3 2 2 5 3 2 4 5 5 5 5 5 4 4 3 3 8 10 9 8 7 8 3 2
11 12 12 9 6 6 4 3 3 4 5 6 6 6 5 1 3 3 2 2 3 2 3 3 2 3 4 5 5 5 5 5 5 3 3 3 8 9 9 9 8 9 6
10 11 11 10 2 7 6 9 8 8 8 8 8 8 7 3 2 2 3 3 4 3 3 3 3 3 4 3 4 5 5 5 5 5 4 4 4 6 7 9 9 10 11
9 9 12 10 9 13 13 11 10 8 9 8 8 12 11 8 7 6 5 5 4 3 4 3 3 2 2 2 3 2 3 5 5 5 4 4 4 3 6 8 8 8 10
7 8 10 11 14 14 13 12 10 9 9 8 8 8 13 12 11 9 7 7 6 4 3 3 4 1 2 2 3 4 4 4 5 6 5 5 4 4 3 5 9 11 11
6 7 10 13 14 14 14 12 12 13 10 9 8 8 12 13 14 10 7 7 8 7 7 5 5 5 5 5 6 6 5 6 5 3 5 6 6 5 5 5 6 8 9
7 8 9 9 11 12 10 11 10 10 10 9 9 10 12 10 12 8 10 8 6 6 5 4 5 5 6 8 7 7 8 6 4 2 5 4 5 5 5 6 6 5 7
8 9 9 9 8 7 7 8 8 9 10 10 11 15 14 13 11 11 7 9 8 8 9 9 5 9 8 11 6 6 3 3 3 4 4 4 5 6 6 6 5 5 5
9 9 9 10 9 8 7 8 8 9 10 10 10 13 14 14 14 12 12 10 11 9 11 13 13 8 8 10 7 6 5 1 2 6 5 4 7 7 7 8 9 8 7
9 9 10 11 12 12 14 12 11 11 10 10 10 10 12 14 14 13 13 11 11 10 10 12 12 13 8 8 11 6 5 5 10 2 5 4 9 9 10 10 10 10 9
9 8 9 10 12 10 10 10 13 11 11 9 9 9 10 13 14 13 13 13 12 9 11 10 9 9 9 8 4 7 5 6 5 7 4 9 7 11 11 9 9 12 12
8 9 10 12 13 12 13 13 12 13 10 9 9 10 11 11 13 13 12 12 12 9 10 11 10 10 8 6 6 6 6 6 3 6 11 7 8 8 9 9 11 9 10
8 10 11 13 13 12 13 14 14 14 11 9 9 8 8 8 8 11 11 10 10 9 9 8 8 9 8 6 5 5 5 4 7 6 11 13 15 7 8 10 7 9 9
Wind_Direction
183 163 180 152 149 141 141 133 129 127 131 135 138 130 121 112 103 89 78 68 64 63 61 58 58 56 58 53 53 62 58 59 56 59 65 66 66 67 57 39 52 65 59
154 168 169 150 150 144 142 136 134 132 128 126 121 125 124 115 106 98 83 71 60 58 57 56 57 54 55 54 50 65 59 55 60 50 50 95 65 60 56 50 43 61 58
161 166 172 145 148 149 143 141 144 142 138 132 126 126 117 113 107 102 94 72 61 56 51 49 50 51 46 46 48 57 59 55 66 55 342 71 70 57 56 47 50 52 51
163 167 169 149 155 157 144 148 150 149 140 134 133 127 130 114 100 89 85 78 63 56 51 46 48 48 41 42 39 40 52 39 64 355 57 45 70 54 55 52 43 41 44
160 173 164 160 158 156 149 153 157 155 147 142 135 128 106 90 82 78 85 80 64 55 50 45 45 47 42 39 33 33 45 44 83 215 70 54 61 57 51 47 49 44 39
152 174 144 177 170 171 167 166 167 160 155 147 130 113 101 88 87 87 101 90 69 57 52 47 46 47 48 42 36 41 43 31 238 87 81 85 62 51 49 55 49 42 37
141 168 172 193 205 187 176 179 160 163 169 156 145 130 119 117 105 95 109 99 71 55 58 51 50 47 48 48 48 44 44 32 56 70 63 50 64 50 52 46 41 38 36
132 162 180 182 236 215 191 177 163 166 167 166 162 144 132 119 107 93 83 78 71 60 59 51 49 45 43 46 47 44 40 4 79 71 62 44 359 68 38 41 33 32 31
91 138 181 195 211 261 246 184 179 174 178 178 172 162 128 119 111 99 86 80 69 60 63 56 54 45 41 42 40 37 37 16 50 55 49 40 356 32 30 23 23 23 29
61 63 92 234 219 232 212 211 206 178 177 166 141 124 130 126 123 112 112 85 75 65 73 62 62 50 52 44 38 31 14 9 32 36 42 23 358 9 8 14 9 18 22
29 17 357 337 269 242 233 183 219 214 173 150 134 137 151 152 139 144 104 114 97 76 85 70 64 50 48 61 48 35 352 30 17 21 18 4 1 355 359 2 1 12 20
357 349 350 337 318 263 255 242 226 213 217 198 175 166 170 127 105 108 116 112 110 99 109 100 85 82 23 22 27 20 30 21 29 15 33 359 0 358 353 355 355 345 20
342 340 343 329 310 290 238 229 248 231 235 222 197 184 167 142 131 140 130 132 129 124 115 87 76 47 37 20 21 16 6 357 360 1 37 359 354 353 349 335 339 342 8
345 345 337 328 293 250 248 206 211 164 109 277 18 221 193 144 145 158 158 147 112 85 112 92 73 61 45 30 15 4 2 351 354 342 8 4 350 346 342 333 329 292 265
353 347 343 326 288 226 185 138 82 55 46 47 29 24 27 14 153 156 142 96 83 83 96 96 83 70 46 24 11 360 353 345 338 330 320 12 343 342 339 333 319 315 294
360 353 341 336 339 172 110 75 66 58 52 49 37 27 44 48 47 124 88 69 62 57 70 76 39 47 80 14 8 359 347 333 326 323 322 315 311 322 331 333 331 319 316
3 356 1 29 52 71 74 73 67 60 60 51 39 33 32 29 67 69 70 67 65 39 82 81 90 79 39 77 335 325 323 324 315 313 304 303 312 278 323 326 331 329 323
12 26 41 62 69 69 74 72 68 64 63 55 47 40 39 47 57 59 62 55 66 51 26 35 5 26 47 22 322 301 287 280 290 300 305 311 311 307 301 353 337 331 324
32 50 65 74 79 84 83 84 77 73 67 58 55 49 44 41 53 62 58 51 34 47 16 21 27 6 16 2 331 307 296 292 296 310 324 326 321 314 325 335 330 315 322
45 61 75 80 90 95 94 89 81 71 63 54 49 49 52 56 59 56 62 51 51 52 26 358 39 41 21 355 321 304 316 327 323 37 7 44 28 10 353 339 331 332 323
64 67 64 76 73 93 90 88 77 83 79 73 68 65 64 62 57 61 59 62 64 53 38 31 20 25 29 1 341 344 355 10 75 351 5 12 56 22 6 1 352 341 328
87 86 88 86 89 90 93 95 90 93 82 78 72 64 60 59 59 59 64 59 47 56 47 38 33 29 30 22 358 311 353 194 11 29 6 31 11 2 7 348 336 328 322
83 83 89 92 94 95 102 105 103 100 93 80 67 63 57 60 59 60 61 58 56 50 45 39 34 32 27 30 32 5 341 350 334 5 9 347 5 351 338 339 333 330 324
90 93 92 97 93 90 93 98 102 99 96 85 80 75 65 59 57 54 56 54 54 50 46 39 34 33 25 28 15 21 16 338 334 315 318 319 343 332 332 326 328 324 319
101 96 96 94 91 94 96 97 98 100 101 102 94 82 71 60 54 51 51 52 52 47 44 40 37 34 31 25 16 353 346 332 320 310 306 316 311 323 308 333 311 312 318
114 109 106 100 91 91 94 96 100 104 103 96 87 79 65 56 54 49 45 47 48 45 37 33 31 29 25 15 4 0 349 335 325 311 305 307 308 310 323 298 302 309 308